Time,TemperatureF,DewpointF,PressureIn,WindDirection,WindDirectionDegrees,WindSpeedMPH,WindSpeedGustMPH,Humidity,HourlyPrecipIn,Conditions,Clouds,dailyrainin,SoftwareType,DateUTC
2013-05-18 00:04:00,58.8,45.0,30.13,ESE,105,3.0,-999.0,61,-99.99,,,0.00,weatherlink.com 1.10,2013-05-18 04:04:00,
2013-05-18 00:19:00,58.9,46.0,30.13,ESE,105,4.0,-999.0,62,-99.99,,,0.00,weatherlink.com 1.10,2013-05-18 04:19:00,
2013-05-18 00:34:00,58.5,46.0,30.14,East,98,4.0,-999.0,63,-99.99,,,0.00,weatherlink.com 1.10,2013-05-18 04:34:00,
2013-05-18 00:49:00,58.2,45.0,30.13,East,93,1.0,-999.0,61,-99.99,,,0.00,weatherlink.com 1.10,2013-05-18 04:49:00,
2013-05-18 01:04:00,58.9,46.0,30.13,East,94,1.0,-999.0,62,-99.99,,,0.00,weatherlink.com 1.10,2013-05-18 05:04:00,
2013-05-18 01:19:00,59.9,47.0,30.13,East,97,6.0,-999.0,62,-99.99,,,0.00,weatherlink.com 1.10,2013-05-18 05:19:00,
2013-05-18 01:34:00,60.2,47.0,30.12,ENE,74,7.0,-999.0,63,-99.99,,,0.00,weatherlink.com 1.10,2013-05-18 05:34:00,
2013-05-18 01:49:00,60.3,47.0,30.12,East,86,7.0,-999.0,63,-99.99,,,0.00,weatherlink.com 1.10,2013-05-18 05:49:00,
2013-05-18 02:04:00,60.1,48.0,30.12,East,84,5.0,-999.0,64,-99.99,,,0.00,weatherlink.com 1.10,2013-05-18 06:04:00,
2013-05-18 02:19:00,59.8,48.0,30.12,East,84,3.0,-999.0,66,-99.99,,,0.00,weatherlink.com 1.10,2013-05-18 06:19:00,
2013-05-18 02:34:00,59.6,48.0,30.12,East,89,7.0,-999.0,66,-99.99,,,0.00,weatherlink.com 1.10,2013-05-18 06:34:00,
2013-05-18 02:49:00,59.1,48.0,30.11,ESE,117,7.0,-999.0,68,-99.99,,,0.00,weatherlink.com 1.10,2013-05-18 06:49:00,
2013-05-18 03:04:00,59.0,48.0,30.10,East,80,14.0,-999.0,67,-99.99,,,0.00,weatherlink.com 1.10,2013-05-18 07:04:00,
2013-05-18 03:19:00,58.9,48.0,30.10,East,93,4.0,-999.0,68,-99.99,,,0.00,weatherlink.com 1.10,2013-05-18 07:19:00,
2013-05-18 03:34:00,58.8,49.0,30.10,ESE,121,5.0,-999.0,69,-99.99,,,0.00,weatherlink.com 1.10,2013-05-18 07:34:00,
2013-05-18 03:49:00,58.5,49.0,30.10,East,89,5.0,-999.0,71,-99.99,,,0.00,weatherlink.com 1.10,2013-05-18 07:49:00,
2013-05-18 04:04:00,58.0,49.0,30.10,East,95,4.0,-999.0,72,-99.99,,,0.00,weatherlink.com 1.10,2013-05-18 08:04:00,
2013-05-18 04:19:00,57.6,49.0,30.10,ENE,65,2.0,-999.0,73,-99.99,,,0.00,weatherlink.com 1.10,2013-05-18 08:19:00,
2013-05-18 04:34:00,57.1,49.0,30.10,ENE,74,5.0,-999.0,74,-99.99,,,0.00,weatherlink.com 1.10,2013-05-18 08:34:00,
2013-05-18 04:49:00,56.6,49.0,30.10,East,95,5.0,-999.0,75,-99.99,,,0.00,weatherlink.com 1.10,2013-05-18 08:49:00,
2013-05-18 05:04:00,56.6,49.0,30.10,ENE,65,7.0,-999.0,76,-99.99,,,0.00,weatherlink.com 1.10,2013-05-18 09:04:00,
2013-05-18 05:19:00,56.2,49.0,30.10,East,94,2.0,-999.0,77,-99.99,,,0.00,weatherlink.com 1.10,2013-05-18 09:19:00,
2013-05-18 05:34:00,55.9,49.0,30.10,ENE,76,3.0,-999.0,78,-99.99,,,0.00,weatherlink.com 1.10,2013-05-18 09:34:00,
2013-05-18 05:49:00,55.9,49.0,30.11,ENE,77,2.0,-999.0,77,-99.99,,,0.00,weatherlink.com 1.10,2013-05-18 09:49:00,
2013-05-18 06:04:00,55.5,48.0,30.11,ENE,75,0.0,-999.0,77,-99.99,,,0.00,weatherlink.com 1.10,2013-05-18 10:04:00,
2013-05-18 06:19:00,55.0,48.0,30.11,NE,45,0.0,-999.0,77,-99.99,,,0.00,weatherlink.com 1.10,2013-05-18 10:19:00,
2013-05-18 06:34:00,55.3,47.0,30.12,North,8,0.0,-999.0,74,-99.99,,,0.00,weatherlink.com 1.10,2013-05-18 10:34:00,
2013-05-18 06:49:00,55.6,47.0,30.13,NE,43,2.0,-999.0,72,-99.99,,,0.00,weatherlink.com 1.10,2013-05-18 10:49:00,
2013-05-18 07:04:00,56.4,47.0,30.14,NNE,33,0.0,-999.0,70,-99.99,,,0.00,weatherlink.com 1.10,2013-05-18 11:04:00,
2013-05-18 07:19:00,57.0,47.0,30.14,East,82,2.0,-999.0,69,-99.99,,,0.00,weatherlink.com 1.10,2013-05-18 11:19:00,
2013-05-18 07:34:00,57.6,47.0,30.14,East,91,2.0,-999.0,68,-99.99,,,0.00,weatherlink.com 1.10,2013-05-18 11:34:00,
2013-05-18 07:49:00,58.0,47.0,30.13,East,80,2.0,-999.0,67,-99.99,,,0.00,weatherlink.com 1.10,2013-05-18 11:49:00,
2013-05-18 08:04:00,58.4,47.0,30.12,East,84,5.0,-999.0,67,-99.99,,,0.00,weatherlink.com 1.10,2013-05-18 12:04:00,
2013-05-18 08:19:00,59.0,48.0,30.12,ENE,70,1.0,-999.0,66,-99.99,,,0.00,weatherlink.com 1.10,2013-05-18 12:19:00,
2013-05-18 08:34:00,59.7,48.0,30.13,East,94,4.0,-999.0,66,-99.99,,,0.00,weatherlink.com 1.10,2013-05-18 12:34:00,
2013-05-18 08:49:00,60.5,49.0,30.12,ESE,109,2.0,-999.0,66,-99.99,,,0.00,weatherlink.com 1.10,2013-05-18 12:49:00,
2013-05-18 09:04:00,61.5,50.0,30.12,East,83,5.0,-999.0,65,-99.99,,,0.00,weatherlink.com 1.10,2013-05-18 13:04:00,
2013-05-18 09:19:00,62.5,49.0,30.12,East,86,7.0,-999.0,62,-99.99,,,0.00,weatherlink.com 1.10,2013-05-18 13:19:00,
2013-05-18 09:34:00,64.2,50.0,30.12,ESE,107,5.0,-999.0,60,-99.99,,,0.00,weatherlink.com 1.10,2013-05-18 13:34:00,
2013-05-18 09:49:00,63.6,49.0,30.12,ENE,76,3.0,-999.0,60,-99.99,,,0.00,weatherlink.com 1.10,2013-05-18 13:49:00,
2013-05-18 10:04:00,64.0,50.0,30.13,East,79,3.0,-999.0,60,-99.99,,,0.00,weatherlink.com 1.10,2013-05-18 14:04:00,
2013-05-18 10:19:00,64.9,50.0,30.12,ESE,108,3.0,-999.0,59,-99.99,,,0.00,weatherlink.com 1.10,2013-05-18 14:19:00,
2013-05-18 10:34:00,64.7,49.0,30.11,East,92,9.0,-999.0,58,-99.99,,,0.00,weatherlink.com 1.10,2013-05-18 14:34:00,
2013-05-18 10:49:00,65.8,50.0,30.11,East,96,8.0,-999.0,57,-99.99,,,0.00,weatherlink.com 1.10,2013-05-18 14:49:00,
2013-05-18 11:04:00,66.6,51.0,30.12,ESE,115,1.0,-999.0,58,-99.99,,,0.00,weatherlink.com 1.10,2013-05-18 15:04:00,
2013-05-18 11:19:00,66.9,51.0,30.11,ESE,106,8.0,-999.0,56,-99.99,,,0.00,weatherlink.com 1.10,2013-05-18 15:19:00,
2013-05-18 11:34:00,68.1,53.0,30.12,ESE,106,6.0,-999.0,58,-99.99,,,0.00,weatherlink.com 1.10,2013-05-18 15:34:00,
2013-05-18 11:49:00,68.8,51.0,30.11,East,86,6.0,-999.0,54,-99.99,,,0.00,weatherlink.com 1.10,2013-05-18 15:49:00,
2013-05-18 12:04:00,70.1,52.0,30.11,ENE,68,8.0,-999.0,52,-99.99,,,0.00,weatherlink.com 1.10,2013-05-18 16:04:00,
2013-05-18 12:19:00,71.1,53.0,30.11,ENE,77,3.0,-999.0,53,-99.99,,,0.00,weatherlink.com 1.10,2013-05-18 16:19:00,
2013-05-18 12:34:00,71.4,55.0,30.11,ESE,120,5.0,-999.0,57,-99.99,,,0.00,weatherlink.com 1.10,2013-05-18 16:34:00,
2013-05-18 12:49:00,71.4,55.0,30.11,ESE,108,5.0,-999.0,57,-99.99,,,0.00,weatherlink.com 1.10,2013-05-18 16:49:00,
2013-05-18 13:04:00,71.2,56.0,30.11,ESE,120,6.0,-999.0,58,-99.99,,,0.00,weatherlink.com 1.10,2013-05-18 17:04:00,
2013-05-18 13:19:00,70.2,55.0,30.10,NE,51,6.0,-999.0,58,-99.99,,,0.00,weatherlink.com 1.10,2013-05-18 17:19:00,
2013-05-18 13:34:00,70.2,54.0,30.10,East,83,5.0,-999.0,56,-99.99,,,0.00,weatherlink.com 1.10,2013-05-18 17:34:00,
2013-05-18 13:49:00,70.7,55.0,30.10,ESE,115,0.0,-999.0,57,-99.99,,,0.00,weatherlink.com 1.10,2013-05-18 17:49:00,
2013-05-18 14:04:00,70.8,53.0,30.09,ESE,111,6.0,-999.0,54,-99.99,,,0.00,weatherlink.com 1.10,2013-05-18 18:04:00,
2013-05-18 14:19:00,69.8,53.0,30.08,East,84,9.0,-999.0,55,-99.99,,,0.00,weatherlink.com 1.10,2013-05-18 18:19:00,
2013-05-18 14:34:00,69.4,52.0,30.08,ENE,74,8.0,-999.0,54,-99.99,,,0.00,weatherlink.com 1.10,2013-05-18 18:34:00,
2013-05-18 14:49:00,69.1,52.0,30.08,SE,132,10.0,-999.0,55,-99.99,,,0.00,weatherlink.com 1.10,2013-05-18 18:49:00,
2013-05-18 15:04:00,68.7,51.0,30.08,East,81,7.0,-999.0,53,-99.99,,,0.00,weatherlink.com 1.10,2013-05-18 19:04:00,
2013-05-18 15:19:00,68.6,50.0,30.08,East,93,6.0,-999.0,52,-99.99,,,0.00,weatherlink.com 1.10,2013-05-18 19:19:00,
2013-05-18 15:34:00,69.6,52.0,30.07,East,79,9.0,-999.0,53,-99.99,,,0.00,weatherlink.com 1.10,2013-05-18 19:34:00,
2013-05-18 15:49:00,67.7,50.0,30.07,SSE,163,8.0,-999.0,53,-99.99,,,0.00,weatherlink.com 1.10,2013-05-18 19:49:00,
2013-05-18 16:04:00,67.8,49.0,30.07,ENE,76,13.0,-999.0,52,-99.99,,,0.00,weatherlink.com 1.10,2013-05-18 20:04:00,
2013-05-18 16:19:00,67.4,50.0,30.07,ESE,110,11.0,-999.0,53,-99.99,,,0.00,weatherlink.com 1.10,2013-05-18 20:19:00,
2013-05-18 16:34:00,67.9,50.0,30.07,SE,141,7.0,-999.0,53,-99.99,,,0.00,weatherlink.com 1.10,2013-05-18 20:34:00,
2013-05-18 16:49:00,68.1,50.0,30.07,East,94,9.0,-999.0,53,-99.99,,,0.00,weatherlink.com 1.10,2013-05-18 20:49:00,
2013-05-18 17:04:00,67.7,50.0,30.07,East,100,12.0,-999.0,53,-99.99,,,0.00,weatherlink.com 1.10,2013-05-18 21:04:00,
2013-05-18 17:19:00,67.1,49.0,30.06,ESE,103,10.0,-999.0,52,-99.99,,,0.00,weatherlink.com 1.10,2013-05-18 21:19:00,
2013-05-18 17:34:00,67.0,49.0,30.06,ESE,111,12.0,-999.0,53,-99.99,,,0.00,weatherlink.com 1.10,2013-05-18 21:34:00,
2013-05-18 17:49:00,67.2,49.0,30.06,ENE,74,8.0,-999.0,52,-99.99,,,0.00,weatherlink.com 1.10,2013-05-18 21:49:00,
2013-05-18 18:04:00,67.3,49.0,30.06,SE,127,7.0,-999.0,53,-99.99,,,0.00,weatherlink.com 1.10,2013-05-18 22:04:00,
2013-05-18 18:19:00,66.9,48.0,30.05,SE,135,4.0,-999.0,50,-99.99,,,0.00,weatherlink.com 1.10,2013-05-18 22:19:00,
2013-05-18 18:34:00,66.6,48.0,30.05,East,101,7.0,-999.0,51,-99.99,,,0.00,weatherlink.com 1.10,2013-05-18 22:34:00,
2013-05-18 18:49:00,66.4,48.0,30.05,East,83,4.0,-999.0,51,-99.99,,,0.00,weatherlink.com 1.10,2013-05-18 22:49:00,
2013-05-18 19:04:00,65.8,47.0,30.06,SE,125,12.0,-999.0,51,-99.99,,,0.00,weatherlink.com 1.10,2013-05-18 23:04:00,
2013-05-18 19:19:00,64.9,48.0,30.06,SE,131,8.0,-999.0,54,-99.99,,,0.00,weatherlink.com 1.10,2013-05-18 23:19:00,
2013-05-18 19:34:00,63.9,48.0,30.06,East,89,7.0,-999.0,57,-99.99,,,0.00,weatherlink.com 1.10,2013-05-18 23:34:00,
2013-05-18 19:49:00,63.5,48.0,30.06,ESE,108,11.0,-999.0,57,-99.99,,,0.00,weatherlink.com 1.10,2013-05-18 23:49:00,
2013-05-18 20:04:00,62.7,48.0,30.06,East,99,6.0,-999.0,60,-99.99,,,0.00,weatherlink.com 1.10,2013-05-19 00:04:00,
2013-05-18 20:19:00,62.5,48.0,30.06,East,79,5.0,-999.0,60,-99.99,,,0.00,weatherlink.com 1.10,2013-05-19 00:19:00,
2013-05-18 20:34:00,62.3,48.0,30.06,ESE,122,3.0,-999.0,60,-99.99,,,0.00,weatherlink.com 1.10,2013-05-19 00:34:00,
2013-05-18 20:49:00,62.1,48.0,30.05,ENE,77,5.0,-999.0,60,-99.99,,,0.00,weatherlink.com 1.10,2013-05-19 00:49:00,
2013-05-18 21:04:00,62.2,47.0,30.05,East,93,9.0,-999.0,59,-99.99,,,0.00,weatherlink.com 1.10,2013-05-19 01:04:00,
2013-05-18 21:19:00,62.1,48.0,30.05,East,96,15.0,-999.0,60,-99.99,,,0.00,weatherlink.com 1.10,2013-05-19 01:19:00,
2013-05-18 21:34:00,61.7,49.0,30.05,SE,132,5.0,-999.0,63,-99.99,,,0.00,weatherlink.com 1.10,2013-05-19 01:34:00,
2013-05-18 21:49:00,61.5,49.0,30.05,ESE,112,5.0,-999.0,64,-99.99,,,0.00,weatherlink.com 1.10,2013-05-19 01:49:00,
2013-05-18 22:04:00,61.4,49.0,30.05,East,89,7.0,-999.0,65,-99.99,,,0.00,weatherlink.com 1.10,2013-05-19 02:04:00,
2013-05-18 22:19:00,61.5,50.0,30.05,East,101,9.0,-999.0,65,-99.99,,,0.00,weatherlink.com 1.10,2013-05-19 02:19:00,
2013-05-18 22:34:00,61.4,49.0,30.05,ESE,108,4.0,-999.0,65,-99.99,,,0.00,weatherlink.com 1.10,2013-05-19 02:34:00,
2013-05-18 22:49:00,61.1,50.0,30.05,ESE,113,1.0,-999.0,67,-99.99,,,0.00,weatherlink.com 1.10,2013-05-19 02:49:00,
2013-05-18 23:04:00,60.8,50.0,30.05,East,96,3.0,-999.0,68,-99.99,,,0.00,weatherlink.com 1.10,2013-05-19 03:04:00,
2013-05-18 23:19:00,60.7,50.0,30.05,East,84,5.0,-999.0,69,-99.99,,,0.00,weatherlink.com 1.10,2013-05-19 03:19:00,
2013-05-18 23:34:00,60.5,51.0,30.04,ESE,117,5.0,-999.0,70,-99.99,,,0.00,weatherlink.com 1.10,2013-05-19 03:34:00,
2013-05-18 23:49:00,60.6,50.0,30.04,ENE,76,4.0,-999.0,69,-99.99,,,0.00,weatherlink.com 1.10,2013-05-19 03:49:00,